Time,TemperatureF,DewpointF,PressureIn,WindDirection,WindDirectionDegrees,WindSpeedMPH,WindSpeedGustMPH,Humidity,HourlyPrecipIn,Conditions,Clouds,dailyrainin,SoftwareType,DateUTC
2013-04-15 00:00:00,55.4,40.3,29.67,SSE,158,0.0,0.0,57,0.00,,,0.00,WUHU216HW,2013-04-15 04:00:00,
2013-04-15 00:05:00,55.4,40.3,29.67,SSE,158,0.0,0.0,57,0.00,,,0.00,WUHU216HW,2013-04-15 04:05:00,
2013-04-15 00:29:00,56.3,41.2,29.67,SSE,158,1.3,1.3,57,0.00,,,0.00,WUHU216HW,2013-04-15 04:29:00,
2013-04-15 00:35:00,56.3,41.2,29.67,SSE,158,1.3,1.3,57,0.00,,,0.00,WUHU216HW,2013-04-15 04:35:00,
2013-04-15 00:59:00,55.8,41.2,29.67,South,180,0.0,0.0,58,0.00,,,0.00,WUHU216HW,2013-04-15 04:59:00,
2013-04-15 01:04:00,55.8,41.2,29.67,South,180,0.0,0.0,58,0.00,,,0.00,WUHU216HW,2013-04-15 05:04:00,
2013-04-15 01:29:00,56.2,41.6,29.68,SSE,158,0.0,0.0,58,0.00,,,0.00,WUHU216HW,2013-04-15 05:29:00,
2013-04-15 01:35:00,56.2,41.6,29.68,SSE,158,0.0,0.0,58,0.00,,,0.00,WUHU216HW,2013-04-15 05:35:00,
2013-04-15 01:59:00,56.2,41.6,29.68,South,180,0.0,0.0,58,0.00,,,0.00,WUHU216HW,2013-04-15 05:59:00,
2013-04-15 02:04:00,56.2,41.6,29.68,South,180,0.0,0.0,58,0.00,,,0.00,WUHU216HW,2013-04-15 06:04:00,
2013-04-15 02:30:00,56.2,42.5,29.67,SE,135,0.2,0.2,60,0.00,,,0.00,WUHU216HW,2013-04-15 06:30:00,
2013-04-15 02:35:00,56.2,42.5,29.67,SE,135,0.2,0.2,60,0.00,,,0.00,WUHU216HW,2013-04-15 06:35:00,
2013-04-15 02:59:00,55.4,42.6,29.67,SE,135,1.6,1.6,62,0.00,,,0.00,WUHU216HW,2013-04-15 06:59:00,
2013-04-15 03:00:00,55.4,42.6,29.67,SE,135,1.6,1.6,62,0.00,,,0.00,WUHU216HW,2013-04-15 07:00:00,
2013-04-15 03:05:00,55.4,42.6,29.67,SE,135,1.6,1.6,62,0.00,,,0.00,WUHU216HW,2013-04-15 07:05:00,
2013-04-15 03:30:00,55.1,42.7,29.68,SE,135,0.0,0.0,63,0.00,,,0.00,WUHU216HW,2013-04-15 07:30:00,
2013-04-15 03:59:00,57.4,41.4,29.69,SE,135,5.4,5.4,55,0.00,,,0.00,WUHU216HW,2013-04-15 07:59:00,
2013-04-15 04:00:00,57.4,41.4,29.69,SE,135,5.4,5.4,55,0.00,,,0.00,WUHU216HW,2013-04-15 08:00:00,
2013-04-15 04:05:00,57.4,41.4,29.69,SE,135,5.4,5.4,55,0.00,,,0.00,WUHU216HW,2013-04-15 08:05:00,
2013-04-15 04:29:00,57.2,40.8,29.69,SSW,203,2.7,2.7,54,0.00,,,0.00,WUHU216HW,2013-04-15 08:29:00,
2013-04-15 04:30:00,57.2,40.8,29.69,SSW,203,2.7,2.7,54,0.00,,,0.00,WUHU216HW,2013-04-15 08:30:00,
2013-04-15 04:34:00,57.2,40.8,29.69,SSW,203,2.7,2.7,54,0.00,,,0.00,WUHU216HW,2013-04-15 08:34:00,
2013-04-15 04:37:00,57.2,40.8,29.69,SSW,203,2.7,2.7,54,0.00,,,0.00,WUHU216HW,2013-04-15 08:37:00,
2013-04-15 04:59:00,56.5,40.5,29.70,SSE,158,1.8,1.8,55,0.00,,,0.00,WUHU216HW,2013-04-15 08:59:00,
2013-04-15 05:00:00,56.5,40.5,29.70,SSE,158,1.8,1.8,55,0.00,,,0.00,WUHU216HW,2013-04-15 09:00:00,
2013-04-15 05:05:00,56.5,40.5,29.70,SSE,158,1.8,1.8,55,0.00,,,0.00,WUHU216HW,2013-04-15 09:05:00,
2013-04-15 05:30:00,56.3,40.8,29.71,SSE,158,2.5,2.5,56,0.00,,,0.00,WUHU216HW,2013-04-15 09:30:00,
2013-04-15 05:35:00,56.3,40.8,29.71,SSE,158,2.5,2.5,56,0.00,,,0.00,WUHU216HW,2013-04-15 09:35:00,
2013-04-15 06:00:00,55.6,41.1,29.71,SSE,158,2.0,2.0,58,0.00,,,0.00,WUHU216HW,2013-04-15 10:00:00,
2013-04-15 06:05:00,55.6,41.1,29.71,SSE,158,2.0,2.0,58,0.00,,,0.00,WUHU216HW,2013-04-15 10:05:00,
2013-04-15 06:30:00,54.7,42.0,29.73,SSE,158,3.4,3.4,62,0.00,,,0.00,WUHU216HW,2013-04-15 10:30:00,
2013-04-15 06:35:00,54.7,42.0,29.73,SSE,158,3.4,3.4,62,0.00,,,0.00,WUHU216HW,2013-04-15 10:35:00,
2013-04-15 07:00:00,54.2,41.9,29.74,SSE,158,1.8,1.8,63,0.00,,,0.00,WUHU216HW,2013-04-15 11:00:00,
2013-04-15 07:04:00,54.2,41.9,29.74,SSE,158,1.8,1.8,63,0.00,,,0.00,WUHU216HW,2013-04-15 11:04:00,
2013-04-15 07:30:00,54.4,42.4,29.75,SE,135,0.4,0.4,64,0.00,,,0.00,WUHU216HW,2013-04-15 11:30:00,
2013-04-15 07:35:00,54.4,42.4,29.75,SE,135,0.4,0.4,64,0.00,,,0.00,WUHU216HW,2013-04-15 11:35:00,
2013-04-15 07:59:00,54.9,42.9,29.75,SE,135,1.1,1.1,64,0.00,,,0.00,WUHU216HW,2013-04-15 11:59:00,
2013-04-15 08:04:00,54.9,42.9,29.75,SE,135,1.1,1.1,64,0.00,,,0.00,WUHU216HW,2013-04-15 12:04:00,
2013-04-15 08:10:00,54.9,42.9,29.75,SE,135,1.1,1.1,64,0.00,,,0.00,WUHU216HW,2013-04-15 12:10:00,
2013-04-15 08:29:00,56.5,43.7,29.76,SSE,158,1.1,1.1,62,0.00,,,0.00,WUHU216HW,2013-04-15 12:29:00,
2013-04-15 08:34:00,56.5,43.7,29.76,SSE,158,1.1,1.1,62,0.00,,,0.00,WUHU216HW,2013-04-15 12:34:00,
2013-04-15 08:59:00,58.0,45.0,29.75,ESE,113,2.5,2.5,62,0.00,,,0.00,WUHU216HW,2013-04-15 12:59:00,
2013-04-15 09:05:00,58.0,45.0,29.75,ESE,113,2.5,2.5,62,0.00,,,0.00,WUHU216HW,2013-04-15 13:05:00,
2013-04-15 09:29:00,58.7,46.5,29.75,ESE,113,2.7,2.7,64,0.00,,,0.00,WUHU216HW,2013-04-15 13:29:00,
2013-04-15 09:34:00,58.7,46.5,29.75,ESE,113,2.7,2.7,64,0.00,,,0.00,WUHU216HW,2013-04-15 13:34:00,
2013-04-15 09:59:00,59.0,47.7,29.76,SE,135,2.0,2.0,66,0.00,,,0.00,WUHU216HW,2013-04-15 13:59:00,
2013-04-15 10:04:00,59.0,47.7,29.76,SE,135,2.0,2.0,66,0.00,,,0.00,WUHU216HW,2013-04-15 14:04:00,
2013-04-15 10:30:00,59.4,48.4,29.76,SSE,158,2.0,2.0,67,0.00,,,0.00,WUHU216HW,2013-04-15 14:30:00,
2013-04-15 10:35:00,59.4,48.4,29.76,SSE,158,2.0,2.0,67,0.00,,,0.00,WUHU216HW,2013-04-15 14:35:00,
2013-04-15 10:59:00,60.8,49.1,29.76,SE,135,3.1,3.1,65,0.00,,,0.00,WUHU216HW,2013-04-15 14:59:00,
2013-04-15 11:04:00,60.8,49.1,29.76,SE,135,3.1,3.1,65,0.00,,,0.00,WUHU216HW,2013-04-15 15:04:00,
2013-04-15 11:29:00,62.8,50.1,29.76,SSW,203,1.3,1.3,63,0.00,,,0.00,WUHU216HW,2013-04-15 15:29:00,
2013-04-15 11:35:00,62.8,50.1,29.76,SSW,203,1.3,1.3,63,0.00,,,0.00,WUHU216HW,2013-04-15 15:35:00,
2013-04-15 11:59:00,64.8,51.5,29.76,SSE,158,4.5,4.5,62,0.00,,,0.00,WUHU216HW,2013-04-15 15:59:00,
2013-04-15 12:04:00,64.8,51.5,29.76,SSE,158,4.5,4.5,62,0.00,,,0.00,WUHU216HW,2013-04-15 16:04:00,
2013-04-15 12:09:00,64.8,51.5,29.76,SSE,158,4.5,4.5,62,0.00,,,0.00,WUHU216HW,2013-04-15 16:09:00,
2013-04-15 12:29:00,64.8,50.6,29.76,SSW,203,1.8,1.8,60,0.00,,,0.00,WUHU216HW,2013-04-15 16:29:00,
2013-04-15 12:35:00,64.8,50.6,29.76,SSW,203,1.8,1.8,60,0.00,,,0.00,WUHU216HW,2013-04-15 16:35:00,
2013-04-15 12:59:00,63.5,50.2,29.77,SSE,158,2.5,2.5,62,0.00,,,0.00,WUHU216HW,2013-04-15 16:59:00,
2013-04-15 13:04:00,63.5,50.2,29.77,SSE,158,2.5,2.5,62,0.00,,,0.00,WUHU216HW,2013-04-15 17:04:00,
2013-04-15 13:29:00,63.2,50.3,29.77,SE,135,3.1,3.1,63,0.00,,,0.00,WUHU216HW,2013-04-15 17:29:00,
2013-04-15 13:30:00,63.2,50.3,29.77,SE,135,3.1,3.1,63,0.00,,,0.00,WUHU216HW,2013-04-15 17:30:00,
2013-04-15 13:31:00,63.2,50.3,29.77,SE,135,3.1,3.1,63,0.00,,,0.00,WUHU216HW,2013-04-15 17:31:00,
2013-04-15 13:36:00,63.2,50.3,29.77,SE,135,3.1,3.1,63,0.00,,,0.00,WUHU216HW,2013-04-15 17:36:00,
2013-04-15 13:59:00,63.4,50.5,29.76,SE,135,3.1,3.1,63,0.00,,,0.00,WUHU216HW,2013-04-15 17:59:00,
2013-04-15 14:05:00,63.4,50.5,29.76,SE,135,3.1,3.1,63,0.00,,,0.00,WUHU216HW,2013-04-15 18:05:00,
2013-04-15 14:29:00,63.4,50.1,29.76,SSE,158,3.4,3.4,62,0.00,,,0.00,WUHU216HW,2013-04-15 18:29:00,
2013-04-15 14:30:00,63.4,50.1,29.76,SSE,158,3.4,3.4,62,0.00,,,0.00,WUHU216HW,2013-04-15 18:30:00,
2013-04-15 14:35:00,63.4,50.1,29.76,SSE,158,3.4,3.4,62,0.00,,,0.00,WUHU216HW,2013-04-15 18:35:00,
2013-04-15 14:59:00,65.3,50.7,29.76,SE,135,2.9,2.9,59,0.00,,,0.00,WUHU216HW,2013-04-15 18:59:00,
2013-04-15 15:04:00,65.3,50.7,29.76,SE,135,2.9,2.9,59,0.00,,,0.00,WUHU216HW,2013-04-15 19:04:00,
2013-04-15 15:30:00,64.1,49.0,29.76,SE,135,3.8,3.8,58,0.00,,,0.00,WUHU216HW,2013-04-15 19:30:00,
2013-04-15 15:35:00,64.1,49.0,29.76,SE,135,3.8,3.8,58,0.00,,,0.00,WUHU216HW,2013-04-15 19:35:00,
2013-04-15 16:00:00,65.7,49.5,29.74,ESE,113,8.3,8.3,56,0.00,,,0.00,WUHU216HW,2013-04-15 20:00:00,
2013-04-15 16:02:00,65.7,49.5,29.74,ESE,113,8.3,8.3,56,0.00,,,0.00,WUHU216HW,2013-04-15 20:02:00,
2013-04-15 16:03:00,65.7,49.5,29.74,ESE,113,8.3,8.3,56,0.00,,,0.00,WUHU216HW,2013-04-15 20:03:00,
2013-04-15 16:08:00,65.7,49.5,29.74,ESE,113,8.3,8.3,56,0.00,,,0.00,WUHU216HW,2013-04-15 20:08:00,
2013-04-15 16:29:00,64.3,49.6,29.74,SE,135,3.8,3.8,59,0.00,,,0.00,WUHU216HW,2013-04-15 20:29:00,
2013-04-15 16:34:00,64.3,49.6,29.74,SE,135,3.8,3.8,59,0.00,,,0.00,WUHU216HW,2013-04-15 20:34:00,
2013-04-15 16:59:00,63.4,49.2,29.74,SE,135,4.0,4.0,60,0.00,,,0.00,WUHU216HW,2013-04-15 20:59:00,
2013-04-15 17:04:00,63.4,49.2,29.74,SE,135,4.0,4.0,60,0.00,,,0.00,WUHU216HW,2013-04-15 21:04:00,
2013-04-15 17:29:00,63.0,49.0,29.75,SW,225,4.3,4.3,60,0.00,,,0.00,WUHU216HW,2013-04-15 21:29:00,
2013-04-15 17:34:00,63.0,49.0,29.75,SW,225,4.3,4.3,60,0.00,,,0.00,WUHU216HW,2013-04-15 21:34:00,
2013-04-15 17:59:00,62.3,48.7,29.76,SSE,158,2.7,2.7,61,0.00,,,0.00,WUHU216HW,2013-04-15 21:59:00,
2013-04-15 18:05:00,62.3,48.7,29.76,SSE,158,2.7,2.7,61,0.00,,,0.00,WUHU216HW,2013-04-15 22:05:00,
2013-04-15 18:29:00,63.0,49.3,29.76,SE,135,2.2,2.2,61,0.00,,,0.00,WUHU216HW,2013-04-15 22:29:00,
2013-04-15 18:34:00,63.0,49.3,29.76,SE,135,2.2,2.2,61,0.00,,,0.00,WUHU216HW,2013-04-15 22:34:00,
2013-04-15 19:00:00,61.9,49.6,29.76,SSE,158,3.4,3.4,64,0.00,,,0.00,WUHU216HW,2013-04-15 23:00:00,
2013-04-15 19:05:00,61.9,49.6,29.76,SSE,158,3.4,3.4,64,0.00,,,0.00,WUHU216HW,2013-04-15 23:05:00,
2013-04-15 19:30:00,60.7,49.7,29.77,SSE,158,4.7,4.7,67,0.00,,,0.00,WUHU216HW,2013-04-15 23:30:00,
2013-04-15 19:35:00,60.7,49.7,29.77,SSE,158,4.7,4.7,67,0.00,,,0.00,WUHU216HW,2013-04-15 23:35:00,
2013-04-15 20:00:00,59.9,50.2,29.78,South,180,3.4,3.4,70,0.00,,,0.00,WUHU216HW,2013-04-16 00:00:00,
2013-04-15 20:05:00,59.9,50.2,29.78,South,180,3.4,3.4,70,0.00,,,0.00,WUHU216HW,2013-04-16 00:05:00,
2013-04-15 20:30:00,58.7,50.0,29.79,SE,135,2.9,2.9,73,0.00,,,0.00,WUHU216HW,2013-04-16 00:30:00,
2013-04-15 20:35:00,58.7,50.0,29.79,SE,135,2.9,2.9,73,0.00,,,0.00,WUHU216HW,2013-04-16 00:35:00,
2013-04-15 20:59:00,57.8,50.9,29.80,SE,135,3.4,3.4,78,0.00,,,0.00,WUHU216HW,2013-04-16 00:59:00,
2013-04-15 21:04:00,57.8,50.9,29.80,SE,135,3.4,3.4,78,0.00,,,0.00,WUHU216HW,2013-04-16 01:04:00,
2013-04-15 21:29:00,57.1,50.9,29.81,SSE,158,2.5,2.5,80,0.00,,,0.00,WUHU216HW,2013-04-16 01:29:00,
2013-04-15 21:34:00,57.1,50.9,29.81,SSE,158,2.5,2.5,80,0.00,,,0.00,WUHU216HW,2013-04-16 01:34:00,
2013-04-15 21:59:00,56.5,50.0,29.81,SSE,158,3.6,3.6,79,0.00,,,0.00,WUHU216HW,2013-04-16 01:59:00,
2013-04-15 22:04:00,56.5,50.0,29.81,SSE,158,3.6,3.6,79,0.00,,,0.00,WUHU216HW,2013-04-16 02:04:00,
2013-04-15 22:29:00,56.2,49.7,29.81,SE,135,2.7,2.7,79,0.00,,,0.00,WUHU216HW,2013-04-16 02:29:00,
2013-04-15 22:34:00,56.2,49.7,29.81,SE,135,2.7,2.7,79,0.00,,,0.00,WUHU216HW,2013-04-16 02:34:00,
2013-04-15 22:59:00,56.0,49.5,29.81,SE,135,2.7,2.7,79,0.00,,,0.00,WUHU216HW,2013-04-16 02:59:00,
2013-04-15 23:04:00,56.0,49.5,29.81,SE,135,2.7,2.7,79,0.00,,,0.00,WUHU216HW,2013-04-16 03:04:00,
2013-04-15 23:29:00,56.2,49.0,29.82,SSW,203,2.5,2.5,77,0.00,,,0.00,WUHU216HW,2013-04-16 03:29:00,
2013-04-15 23:34:00,56.2,49.0,29.82,SSW,203,2.5,2.5,77,0.00,,,0.00,WUHU216HW,2013-04-16 03:34:00,
2013-04-15 23:59:00,55.8,48.6,29.82,SE,135,2.5,2.5,77,0.00,,,0.00,WUHU216HW,2013-04-16 03:59:00,